Weather History for KBDN - December, 2013

Change the Weather History Date:

Monday, December 30, 2013

  Actual Average (KRDM) Record (KRDM)
Temperature  
Mean Temperature 38 °F 31 °F  
Max Temperature 44 °F 40 °F 66 °F (1980)
Min Temperature 32 °F 21 °F -8 °F (1968)
Degree Days  
Heating Degree Days 27 34  
Month to date heating degree days 1034  
Since 1 July heating degree days 2808  
Cooling Degree Days 0 0  
Month to date cooling degree days 0  
Year to date cooling degree days 222  
Moisture  
Dew Point 23 °F    
Average Humidity 57    
Maximum Humidity 75    
Minimum Humidity 34    
Precipitation  
Precipitation 0.00 in 0.04 in 0.34 in (2005)
Month to date precipitation 1.13  
Year to date precipitation 8.87  
Sea Level Pressure  
Sea Level Pressure 30.22 in    
Wind  
Wind Speed 5 mph (SE)    
Max Wind Speed 10 mph    
Max Gust Speed -    
Visibility 10 miles    
Events      
T = Trace of Precipitation, MM = Missing Value Source: NWS Daily Summary

Daily Weather History Graph

Daily Weather History Graph

Search for Another Location

Airport or City:

Trip Planner

Search our weather history database for the weather conditions in past years. The results will help you decide how hot, cold, wet, or windy it might be!

Date:

Astronomy

Dec. 30, 2013 Rise Set
Actual Time 7:39 AM PST 4:35 PM PST
Civil Twilight 7:06 AM PST 5:08 PM PST
Nautical Twilight 6:30 AM PST 5:45 PM PST
Astronomical Twilight 5:55 AM PST 6:20 PM PST
Moon 5:33 AM PST (12/30) 3:15 PM PST (12/30)
Length of Visible Light 10h 01m
Length of Day
8h 55m
Waning Crescent, 4% of the Moon is Illuminated
Dec 30
Waning Crescent
Jan 1
New
Jan 7
First Quarter
Jan 15
Full
Jan 23
Last Quarter

Hourly Weather History & Observations

Time (PST) Temp. Windchill Dew Point Humidity Pressure Visibility Wind Dir Wind Speed Gust Speed Precip Events Conditions
12:15 AM 32.0 °F 25.6 °F 23.0 °F 69% 30.27 in 10.0 mi SE 6.9 mph - N/A   Clear
12:35 AM 32.0 °F 24.2 °F 23.0 °F 69% 30.26 in 10.0 mi SE 9.2 mph - N/A   Clear
12:55 AM 33.8 °F 27.7 °F 23.0 °F 65% 30.26 in 10.0 mi ESE 6.9 mph - N/A   Clear
1:15 AM 33.8 °F 28.6 °F 23.0 °F 65% 30.26 in 10.0 mi SE 5.8 mph - N/A   Clear
1:35 AM 32.0 °F 25.6 °F 23.0 °F 69% 30.26 in 10.0 mi SE 6.9 mph - N/A   Clear
1:55 AM 32.0 °F 26.4 °F 23.0 °F 69% 30.26 in 10.0 mi SSE 5.8 mph - N/A   Clear
2:15 AM 32.0 °F 26.4 °F 24.8 °F 75% 30.27 in 10.0 mi SE 5.8 mph - N/A   Clear
2:35 AM 32.0 °F - 23.0 °F 69% 30.27 in 10.0 mi Calm Calm - N/A   Clear
2:55 AM 32.0 °F 26.4 °F 23.0 °F 69% 30.27 in 10.0 mi SE 5.8 mph - N/A   Clear
3:15 AM 32.0 °F 25.6 °F 23.0 °F 69% 30.26 in 10.0 mi SE 6.9 mph - N/A   Clear
3:35 AM 32.0 °F - 23.0 °F 69% 30.26 in 10.0 mi Calm Calm - N/A   Partly Cloudy
3:55 AM 32.0 °F 28.7 °F 23.0 °F 69% 30.25 in 10.0 mi SE 3.5 mph - N/A   Scattered Clouds
4:15 AM 32.0 °F - 24.8 °F 75% 30.26 in 10.0 mi Calm Calm - N/A   Partly Cloudy
4:35 AM 32.0 °F 27.5 °F 24.8 °F 75% 30.25 in 10.0 mi SE 4.6 mph - N/A   Partly Cloudy
4:55 AM 32.0 °F 26.4 °F 24.8 °F 75% 30.25 in 10.0 mi SE 5.8 mph - N/A   Clear
5:15 AM 32.0 °F 26.4 °F 24.8 °F 75% 30.24 in 10.0 mi ESE 5.8 mph - N/A   Clear
5:35 AM 32.0 °F 25.6 °F 23.0 °F 69% 30.24 in 10.0 mi SE 6.9 mph - N/A   Clear
5:55 AM 32.0 °F 24.2 °F 23.0 °F 69% 30.24 in 10.0 mi SE 9.2 mph - N/A   Clear
6:15 AM 32.0 °F 26.4 °F 23.0 °F 69% 30.24 in 10.0 mi SE 5.8 mph - N/A   Clear
6:35 AM 32.0 °F 25.6 °F 23.0 °F 69% 30.23 in 10.0 mi SE 6.9 mph - N/A   Clear
6:55 AM 33.8 °F 26.4 °F 23.0 °F 65% 30.23 in 10.0 mi ESE 9.2 mph - N/A   Clear
7:15 AM 32.0 °F 24.2 °F 23.0 °F 69% 30.22 in 10.0 mi ESE 9.2 mph - N/A   Scattered Clouds
7:35 AM 32.0 °F 25.6 °F 23.0 °F 69% 30.23 in 10.0 mi ESE 6.9 mph - N/A   Scattered Clouds
7:55 AM 32.0 °F 25.6 °F 23.0 °F 69% 30.23 in 10.0 mi ESE 6.9 mph - N/A   Partly Cloudy
8:15 AM 32.0 °F 24.2 °F 23.0 °F 69% 30.23 in 10.0 mi SE 9.2 mph - N/A   Clear
8:35 AM 35.6 °F 28.6 °F 23.0 °F 60% 30.23 in 10.0 mi SE 9.2 mph - N/A   Clear
8:55 AM 35.6 °F 29.9 °F 23.0 °F 60% 30.23 in 10.0 mi SE 6.9 mph - N/A   Clear
9:15 AM 37.4 °F 32.1 °F 23.0 °F 56% 30.23 in 10.0 mi SE 6.9 mph - N/A   Clear
9:35 AM 37.4 °F 32.8 °F 23.0 °F 56% 30.24 in 10.0 mi SSE 5.8 mph - N/A   Clear
9:55 AM 37.4 °F 31.4 °F 23.0 °F 56% 30.24 in 10.0 mi South 8.1 mph - N/A   Clear
10:15 AM 39.2 °F 33.6 °F 23.0 °F 52% 30.23 in 10.0 mi SE 8.1 mph - N/A   Clear
10:35 AM 39.2 °F 33.6 °F 21.2 °F 49% 30.23 in 10.0 mi SSE 8.1 mph - N/A   Clear
10:55 AM 42.8 °F 37.0 °F 15.8 °F 34% 30.23 in 10.0 mi South 10.4 mph - N/A   Clear
11:15 AM 41.0 °F 36.4 °F 21.2 °F 45% 30.22 in 10.0 mi SE 6.9 mph - N/A   Clear
11:35 AM 41.0 °F 37.1 °F 21.2 °F 45% 30.21 in 10.0 mi SE 5.8 mph - N/A   Clear
11:55 AM 42.8 °F 41.1 °F 21.2 °F 42% 30.21 in 10.0 mi SE 3.5 mph - N/A   Clear
12:15 PM 42.8 °F - 21.2 °F 42% 30.20 in 10.0 mi Calm Calm - N/A   Clear
12:55 PM 44.6 °F 43.1 °F 23.0 °F 43% 30.18 in 10.0 mi ESE 3.5 mph - N/A   Clear
1:15 PM 44.6 °F 43.1 °F 23.0 °F 43% 30.18 in 10.0 mi SE 3.5 mph - N/A   Clear
1:35 PM 44.6 °F 41.4 °F 23.0 °F 43% 30.17 in 10.0 mi SE 5.8 mph - N/A   Clear
1:55 PM 44.6 °F - 23.0 °F 43% 30.17 in 10.0 mi Calm Calm - N/A   Clear
2:15 PM 44.6 °F - 23.0 °F 43% 30.18 in 10.0 mi Calm Calm - N/A   Clear
2:35 PM 44.6 °F - 23.0 °F 43% 30.18 in 10.0 mi Calm Calm - N/A   Clear
2:55 PM 44.6 °F - 23.0 °F 43% 30.19 in 10.0 mi Calm Calm - N/A   Clear
3:15 PM 44.6 °F - 23.0 °F 43% 30.20 in 10.0 mi Calm Calm - N/A   Clear
3:35 PM 44.6 °F - 23.0 °F 43% 30.20 in 10.0 mi Calm Calm - N/A   Clear
3:55 PM 42.8 °F - 24.8 °F 49% 30.21 in 10.0 mi Calm Calm - N/A   Clear
4:15 PM 42.8 °F - 24.8 °F 49% 30.21 in 10.0 mi Calm Calm - N/A   Clear
4:35 PM 41.0 °F - 24.8 °F 53% 30.22 in 10.0 mi Calm Calm - N/A   Clear
4:55 PM 39.2 °F - 24.8 °F 56% 30.22 in 10.0 mi Calm Calm - N/A   Clear
5:15 PM 39.2 °F - 24.8 °F 56% 30.23 in 10.0 mi Calm Calm - N/A   Clear
5:35 PM 39.2 °F 37.0 °F 24.8 °F 56% 30.23 in 10.0 mi SSE 3.5 mph - N/A   Clear
5:55 PM 39.2 °F 35.0 °F 24.8 °F 56% 30.22 in 10.0 mi ESE 5.8 mph - N/A   Clear
6:15 PM 39.2 °F 37.0 °F 24.8 °F 56% 30.22 in 10.0 mi SSE 3.5 mph - N/A   Clear
6:35 PM 39.2 °F - 24.8 °F 56% 30.22 in 10.0 mi Calm Calm - N/A   Clear
6:55 PM 37.4 °F 34.9 °F 24.8 °F 60% 30.22 in 10.0 mi SSE 3.5 mph - N/A   Clear
7:15 PM 39.2 °F 35.9 °F 24.8 °F 56% 30.22 in 10.0 mi South 4.6 mph - N/A   Clear
7:35 PM 39.2 °F 37.0 °F 24.8 °F 56% 30.21 in 10.0 mi SSE 3.5 mph - N/A   Clear
7:55 PM 37.4 °F 32.8 °F 24.8 °F 60% 30.21 in 10.0 mi South 5.8 mph - N/A   Clear
8:15 PM 41.0 °F 38.0 °F 23.0 °F 49% 30.20 in 10.0 mi South 4.6 mph - N/A   Clear
8:35 PM 37.4 °F 32.8 °F 24.8 °F 60% 30.20 in 10.0 mi South 5.8 mph - N/A   Clear
8:55 PM 39.2 °F 35.0 °F 23.0 °F 52% 30.20 in 10.0 mi SSE 5.8 mph - N/A   Clear
9:15 PM 37.4 °F - 23.0 °F 56% 30.20 in 10.0 mi Calm Calm - N/A   Clear
9:35 PM 44.6 °F 40.2 °F 17.6 °F 34% 30.21 in 10.0 mi SW 8.1 mph - N/A   Clear
9:55 PM 44.6 °F 39.7 °F 17.6 °F 34% 30.22 in 10.0 mi SW 9.2 mph - N/A   Partly Cloudy
10:15 PM 44.6 °F 39.2 °F 17.6 °F 34% 30.21 in 10.0 mi SW 10.4 mph - N/A   Partly Cloudy
10:35 PM 44.6 °F 43.1 °F 17.6 °F 34% 30.22 in 10.0 mi West 3.5 mph - N/A   Scattered Clouds
10:55 PM 39.2 °F - 23.0 °F 52% 30.22 in 10.0 mi Calm Calm - N/A   Overcast
11:15 PM 37.4 °F - 23.0 °F 56% 30.22 in 10.0 mi Calm Calm - N/A   Overcast
11:35 PM 35.6 °F - 24.8 °F 65% 30.21 in 10.0 mi Calm Calm - N/A   Overcast
11:55 PM 37.4 °F - 23.0 °F 56% 30.21 in 10.0 mi Calm Calm - N/A   Mostly Cloudy